Regional Weather Roundup
Issued by NWS Nashville, TN

Home | Current Version | Previous Version | Text Only | Print | Product List | Glossary On
Versions: 1 2 3 4 5 6 7 8 9 10 11 12 13 14 15 16 17 18 19 20 21 22 23 24 25 26 27
000
ASUS44 KOHX 251310
RWROHX
MIDDLE TENNESSEE HOURLY WEATHER ROUNDUP
NATIONAL WEATHER SERVICE NASHVILLE TN
800 AM CDT SUN JUN 25 2017

NOTE: "FAIR" INDICATES FEW OR NO CLOUDS BELOW 12,000 FEET WITH
NO SIGNIFICANT WEATHER AND/OR OBSTRUCTIONS TO VISIBILITY.

* THESE REPORTS ARE NOT UNDER NWS QUALITY CONTROL AND MAY NOT
  REPORT WEATHER SUCH AS PRECIPITATION AND FOG.


TNZ005>011-023>034-057-059-062>066-078-080-251400
...NORTHERN MIDDLE TENNESSEE...

CITY           SKY/WX    TMP DP  RH WIND       PRES   REMARKS
CLARKSVILLE    SUNNY     66  58  75 CALM      30.22R
CROSSVILLE     PTSUNNY   61  55  81 N5        30.25R
GALLATIN       SUNNY     68  59  73 CALM      30.25R
NASHVILLE      MOSUNNY   70  55  59 NW7       30.23R
PORTLAND       SUNNY     66  57  72 CALM      30.22S
SMYRNA         SUNNY     68  60  75 N6        30.24R
SPARTA         SUNNY     63  61  94 CALM      30.22S
SPRINGFIELD    SUNNY     66  57  72 CALM      30.21S
WEST NASHVILLE SUNNY     68  55  64 CALM      30.21S
$$
TNZ056-058-060-061-075>077-079-093>097-251400
...SOUTHERN MIDDLE TENNESSEE...

CITY           SKY/WX    TMP DP  RH WIND       PRES   REMARKS
COLUMBIA       SUNNY     66  59  77 CALM      30.21R
FAYETTEVILLE   SUNNY     64  59  82 CALM      30.22R
MCMINNVILLE    SUNNY     64  63  94 CALM      30.23R
MURFREESBORO   SUNNY     67  57  70 NE3       30.21R
PULASKI        SUNNY     66  61  82 CALM      30.21S
SHELBYVILLE    SUNNY     66  59  77 NE3       30.21S
TULLAHOMA      SUNNY     64  55  72 NE5       30.22S
WINCHESTER     SUNNY     63  61  94 CALM        N/A
$$


...KEY TO REMARKS...
VSB - VISIBILITY IN MILES
WCI - WIND CHILL INDEX
HX  - HEAT INDEX





USA.gov is the U.S. government's official web portal to all federal, state and local government web resources and services.